Location: Arcones
(41.1182°N, 3.7238°W)
Time: 22:58:23
(UTC+00:00)

IRIDIUM 106 - Pass Details

Date: 15 March 2026
Orbit: 776 x 780 km, 86.4° (Epoch: 13 April)

Event Time Altitude Azimuth Distance (km) Brightness Sun altitude
Exits shadow 21:29:10 20° 1° (N) 1,755 6.4 -34.5°
Drops below altitude 10° 21:30:41 10° 2° (N) 2,340 7.1 -34.7°
Sets 21:33:03 0° 3° (N) 3,271 7.9 -35.1°
